GW7256 Weather Reports


time (UTC)temp
C
wind
direction
speed
KPH
gust
KPH
rain 1hr
cm
rain 24hr
cm
rain mn
cm
humidity
%
barometer
mb
20260502194507 12 145 6.4 9.7 0.00 0.79 0.79 80 1012.2
20260502194002 12 159 1.6 9.7 0.00 0.79 0.79 80 1012.6
20260502193500 12 131 6.4 6.4 0.00 0.79 0.79 79 1012.7
20260502192955 12 181 0.0 3.2 0.00 0.79 0.79 79 1012.7
20260502192452 12 122 1.6 3.2 0.00 0.79 0.79 81 1012.5
20260502191949 12 133 1.6 3.2 0.00 0.79 0.79 81 1012.7
20260502191447 12 143 3.2 4.8 0.00 0.79 0.79 79 1012.7
20260502190944 12 162 0.0 6.4 0.00 0.79 0.79 80 1012.8
20260502190442 12 186 3.2 4.8 0.00 0.79 0.79 81 1012.9
20260502185938 12 134 3.2 6.4 0.00 0.79 0.79 80 1013.1
20260502185433 12 50 1.6 4.8 0.00 0.79 0.79 83 1012.8
20260502184931 12 168 0.0 3.2 0.00 0.79 0.79 82 1012.7
20260502184426 12 117 3.2 4.8 0.00 0.79 0.79 81 1012.8
20260502183922 12 134 6.4 9.7 0.00 0.79 0.79 83 1012.9
20260502183419 12 152 1.6 3.2 0.00 0.79 0.79 85 1013.0
20260502182914 12 129 0.0 1.6 0.00 0.79 0.79 86 1013.3
20260502182410 12 129 0.0 1.6 0.00 0.79 0.79 86 1013.3
20260502181906 12 5 6.4 6.4 0.00 0.79 0.79 85 1013.4
20260502181405 11 162 0.0 1.6 0.00 0.79 0.79 86 1013.1
20260502180903 11 206 1.6 3.2 0.00 0.79 0.79 86 1013.4
20260502180400 11 112 1.6 3.2 0.00 0.79 0.79 86 1013.3
20260502170318 11 129 3.2 9.7 0.18 0.74 0.74 88 1013.2
20260502164306 11 155 0.0 3.2 0.00 0.69 0.69 90 1013.7
20260502163802 11 145 0.0 1.6 0.18 0.69 0.69 90 1013.9
20260502163258 11 77 1.6 3.2 0.00 0.66 0.66 90 1014.0
20260502162755 11 82 1.6 3.2 0.13 0.66 0.66 90 1014.1
20260502162252 11 162 1.6 1.6 0.18 0.64 0.64 90 1014.1
20260502161749 11 119 3.2 3.2 0.18 0.64 0.64 90 1014.4
20260502161245 11 174 1.6 1.6 0.13 0.61 0.61 90 1014.3
20260502160744 11 103 4.8 4.8 0.13 0.61 0.61 90 1014.5
20260502160243 11 146 0.0 3.2 0.00 0.58 0.58 89 1014.4
20260502152212 11 155 1.6 3.2 0.00 0.53 0.53 88 1014.3
20260502151709 11 140 1.6 3.2 0.18 0.53 0.53 89 1014.1
20260502151206 11 168 0.0 3.2 0.18 0.53 0.53 88 1014.3
20260502150704 11 168 3.2 9.7 0.00 0.51 0.51 88 1014.1
20260502150200 11 177 3.2 3.2 0.00 0.51 0.51 89 1014.4
20260502140123 11 146 0.0 1.6 0.13 0.38 0.38 90 1013.4
20260502130548 11 135 0.0 1.6 0.18 0.25 0.25 90 1013.2
20260502123532 11 191 1.6 3.2 0.18 0.18 0.18 90 1012.4
20260502123028 11 205 3.2 4.8 0.18 0.18 0.18 89 1012.5
20260502122525 11 153 0.0 3.2 0.00 0.15 0.15 90 1012.6
20260502122022 11 155 0.0 4.8 0.13 0.15 0.15 89 1012.5
20260502121519 11 311 1.6 4.8 0.13 0.15 0.15 90 1012.7
20260502121017 11 346 3.2 4.8 0.18 0.13 0.13 89 1012.8
20260502120513 11 166 3.2 3.2 0.18 0.13 0.13 89 1012.5
20260502115508 11 132 1.6 3.2 0.13 0.10 0.10 88 1013.0
20260502115003 11 350 3.2 4.8 0.18 0.08 0.08 88 1012.9
20260502114500 11 170 1.6 3.2 0.18 0.08 0.08 87 1013.1
20260502113957 11 152 1.6 3.2 0.13 0.05 0.05 87 1012.8
20260502113455 11 170 1.6 1.6 0.13 0.05 0.05 86 1012.9
20260502112953 11 126 1.6 3.2 0.00 0.03 0.03 86 1013.0
20260502112450 11 118 1.6 4.8 0.00 0.03 0.03 84 1013.0
20260502111948 12 181 0.0 1.6 0.18 0.03 0.03 84 1013.1
20260502111445 12 359 3.2 3.2 0.18 0.03 0.03 83 1013.1
20260502110942 12 222 1.6 3.2 0.00 0.00 0.00 82 1012.9
20260502110440 12 352 3.2 3.2 0.00 0.00 0.00 82 1013.0
20260502105937 12 329 1.6 3.2 0.00 0.00 0.00 83 1012.9
20260502105434 12 333 0.0 1.6 0.00 0.00 0.00 84 1013.1
20260502104932 12 333 0.0 0.0 0.00 0.00 0.00 85 1012.9
20260502104429 12 293 0.0 1.6 0.00 0.00 0.00 84 1013.2
20260502103926 12 300 0.0 3.2 0.00 0.00 0.00 84 1013.0
20260502103424 12 344 3.2 4.8 0.00 0.00 0.00 84 1013.0
20260502102921 12 312 3.2 3.2 0.00 0.00 0.00 84 1013.0
20260502102417 12 322 3.2 4.8 0.00 0.00 0.00 84 1013.0
20260502101915 12 297 3.2 6.4 0.00 0.00 0.00 85 1012.8
20260502101413 12 197 3.2 3.2 0.00 0.00 0.00 86 1012.9
20260502100911 12 359 6.4 14.5 0.00 0.00 0.00 86 1012.9
20260502100410 12 344 3.2 6.4 0.00 0.00 0.00 86 1012.8
20260502091343 11 288 3.2 6.4 0.00 0.00 0.00 87 1012.8
20260502090841 11 352 1.6 6.4 0.00 0.00 0.00 87 1012.9
20260502090338 11 7 8.0 11.3 0.00 0.00 0.00 87 1012.6
20260502071233 11 200 0.0 0.0 0.00 0.00 0.00 90 1012.2
20260502070731 11 200 0.0 0.0 0.00 0.00 0.00 90 1012.2
20260502070229 11 200 0.0 0.0 0.00 0.00 0.00 91 1012.3
20260502065727 11 126 0.0 0.0 0.00 0.00 0.00 90 1012.2
20260502065224 11 200 0.0 0.0 0.00 0.00 0.00 90 1012.1
20260502064723 11 200 0.0 0.0 0.00 0.00 0.00 90 1012.2
20260502064220 11 200 0.0 0.0 0.00 0.00 0.00 90 1012.3
20260502063718 11 126 0.0 0.0 0.00 0.00 0.00 90 1012.3
20260502063215 11 126 0.0 0.0 0.00 0.00 0.00 90 1012.5
20260502062712 11 200 0.0 0.0 0.00 0.00 0.00 90 1012.5
20260502062210 11 200 0.0 0.0 0.00 0.00 0.00 90 1012.6
20260502061708 11 200 0.0 0.0 0.00 0.00 0.00 89 1012.6
20260502061205 11 200 0.0 0.0 0.00 0.00 0.00 90 1012.8
20260502060700 11 200 0.0 0.0 0.00 0.00 0.00 91 1012.4
20260502060157 11 200 0.0 0.0 0.00 0.00 0.00 91 1012.4
20260502055655 11 126 0.0 0.0 0.00 0.00 0.00 91 1012.6
20260502055152 11 200 0.0 0.0 0.00 0.00 0.00 90 1012.7
20260502054652 11 200 0.0 0.0 0.00 0.00 0.00 90 1012.7
20260502054148 11 200 0.0 0.0 0.00 0.00 0.00 90 1012.6
20260502053646 11 200 0.0 0.0 0.00 0.00 0.00 90 1012.9
20260502053142 11 200 0.0 0.0 0.00 0.00 0.00 90 1012.6
20260502052641 11 200 0.0 0.0 0.00 0.00 0.00 90 1013.0
20260502052138 11 200 0.0 0.0 0.00 0.00 0.00 89 1012.9
20260502051637 11 200 0.0 0.0 0.00 0.00 0.00 90 1013.0
20260502051134 11 200 0.0 0.0 0.00 0.00 0.00 90 1013.2
20260502050630 11 200 0.0 0.0 0.00 0.00 0.00 90 1013.0
20260502050127 11 200 0.0 0.0 0.00 0.00 0.00 90 1013.1
20260502045624 11 200 0.0 0.0 0.00 0.00 0.00 89 1012.8
20260502045121 11 200 0.0 0.0 0.00 0.00 0.00 89 1013.0
20260502044617 11 200 0.0 0.0 0.00 0.00 0.00 88 1013.1
20260502044114 11 200 0.0 0.0 0.00 0.00 0.00 89 1013.1
20260502043612 11 200 0.0 0.0 0.00 0.00 0.00 89 1013.2
20260502043108 11 200 0.0 0.0 0.00 0.00 0.00 89 1013.5
20260502042603 11 200 0.0 0.0 0.00 0.00 0.00 89 1013.1
20260502042100 11 200 0.0 0.0 0.00 0.00 0.00 90 1013.3
20260502041558 11 133 0.0 0.0 0.00 0.00 0.00 89 1013.4
20260502041055 11 133 1.6 1.6 0.00 0.00 0.00 89 1013.2
20260502040551 11 133 0.0 0.0 0.00 0.00 0.00 89 1013.2
20260502040049 11 134 0.0 0.0 0.00 0.00 0.00 88 1013.3
20260502035544 11 134 0.0 0.0 0.00 0.00 0.00 88 1013.3
20260502035042 11 134 0.0 0.0 0.00 0.00 0.00 88 1013.4
20260502034540 11 138 0.0 0.0 0.00 0.00 0.00 89 1013.4
20260502034038 11 138 0.0 0.0 0.00 0.00 0.00 89 1013.3
20260502033536 11 138 0.0 0.0 0.00 0.00 0.00 88 1013.4
20260502033033 11 138 0.0 0.0 0.00 0.00 0.00 88 1013.3
20260502032529 11 138 0.0 0.0 0.00 0.00 0.00 88 1013.4
20260502032026 11 138 0.0 0.0 0.00 0.00 0.00 88 1013.7
20260502031524 11 138 0.0 0.0 0.00 0.00 0.00 89 1013.7
20260502031021 11 138 0.0 0.0 0.00 0.00 0.00 88 1013.4
20260502030520 11 138 0.0 0.0 0.00 0.00 0.00 88 1013.7
20260502030018 11 138 0.0 0.0 0.00 0.00 0.00 88 1013.9
20260502025515 11 138 0.0 0.0 0.00 0.00 0.00 87 1013.9
20260502025013 11 138 0.0 0.0 0.00 0.00 0.00 87 1013.7
20260502024510 11 138 0.0 0.0 0.00 0.00 0.00 86 1013.9
20260502024008 11 138 0.0 0.0 0.00 0.00 0.00 86 1013.8
20260502023505 11 138 0.0 0.0 0.00 0.00 0.00 86 1013.9
20260502023002 11 138 0.0 1.6 0.00 0.00 0.00 86 1013.9
20260502022459 11 139 0.0 0.0 0.00 0.00 0.00 86 1014.0
20260502021956 11 139 0.0 0.0 0.00 0.00 0.00 86 1013.8
20260502021453 11 139 0.0 0.0 0.00 0.00 0.00 86 1013.9
20260502020950 11 139 0.0 0.0 0.00 0.00 0.00 86 1014.0
20260502020449 11 139 0.0 0.0 0.00 0.00 0.00 86 1013.8
20260502015944 11 139 0.0 0.0 0.00 0.00 0.00 87 1013.9
20260502015443 11 139 0.0 0.0 0.00 0.00 0.00 86 1013.9
20260502014939 11 139 0.0 0.0 0.00 0.00 0.00 86 1013.7
20260502014436 11 139 0.0 0.0 0.00 0.00 0.00 86 1014.0
20260502013932 11 139 0.0 0.0 0.00 0.00 0.00 85 1013.8
20260502013428 11 139 0.0 0.0 0.00 0.00 0.00 85 1013.8
20260502012924 11 139 0.0 0.0 0.00 0.00 0.00 85 1014.0
20260502012422 11 139 0.0 0.0 0.00 0.00 0.00 84 1014.0
20260502011920 11 139 0.0 0.0 0.00 0.00 0.00 84 1014.0
20260502011415 11 139 0.0 0.0 0.00 0.00 0.00 84 1013.7
20260502010913 12 139 0.0 0.0 0.00 0.00 0.00 84 1013.4
20260502010409 12 139 0.0 0.0 0.00 0.00 0.00 84 1013.4
20260502005906 12 139 0.0 0.0 0.00 0.00 0.00 84 1013.5
20260502005404 12 139 1.6 1.6 0.00 0.00 0.00 83 1013.5
20260502004901 12 139 0.0 0.0 0.00 0.00 0.00 83 1013.7
20260502004357 12 138 1.6 3.2 0.00 0.00 0.00 82 1013.2
20260502003855 12 141 1.6 1.6 0.00 0.00 0.00 81 1013.2
20260502003352 12 147 0.0 0.0 0.00 0.00 0.00 81 1013.1
20260502002848 12 147 1.6 1.6 0.00 0.00 0.00 81 1013.1
20260502002345 12 147 1.6 3.2 0.00 0.00 0.00 80 1013.1
20260502001843 12 152 0.0 0.0 0.00 0.00 0.00 81 1012.9
20260502001340 12 151 0.0 0.0 0.00 0.00 0.00 80 1013.3
20260502000838 12 153 0.0 1.6 0.00 0.00 0.00 81 1013.1
20260502000336 12 156 1.6 1.6 0.00 0.00 0.00 80 1013.3
20260501235832 12 157 1.6 1.6 0.00 0.00 0.00 80 1013.3
20260501235327 12 152 1.6 3.2 0.00 0.00 0.00 79 1013.1
20260501234823 12 172 0.0 1.6 0.00 0.00 0.00 80 1013.1
20260501234320 12 167 0.0 1.6 0.00 0.00 0.00 79 1013.2
20260501233819 12 168 0.0 3.2 0.00 0.00 0.00 79 1013.2
20260501233316 12 157 0.0 3.2 0.00 0.00 0.00 79 1013.1
20260501232811 12 151 3.2 4.8 0.00 0.00 0.00 77 1013.0
20260501232308 12 181 0.0 1.6 0.00 0.00 0.00 77 1013.5
20260501231806 12 145 3.2 3.2 0.00 0.00 0.00 76 1013.3
20260501231304 12 156 1.6 3.2 0.00 0.00 0.00 75 1013.2
20260501230802 12 159 0.0 1.6 0.00 0.00 0.00 76 1013.2
20260501230300 12 153 1.6 3.2 0.00 0.00 0.00 75 1013.3
20260501225757 12 167 1.6 1.6 0.00 0.00 0.00 74 1013.4
20260501225255 12 146 1.6 1.6 0.00 0.00 0.00 73 1013.3
20260501224751 12 155 1.6 3.2 0.00 0.00 0.00 74 1013.3
20260501224249 12 152 0.0 1.6 0.00 0.00 0.00 71 1013.5
20260501223744 12 136 1.6 3.2 0.00 0.00 0.00 73 1013.5
20260501223241 12 175 0.0 1.6 0.00 0.00 0.00 74 1013.4
20260501222737 12 160 1.6 1.6 0.00 0.00 0.00 73 1013.5
20260501222234 12 168 0.0 0.0 0.00 0.00 0.00 75 1013.7
20260501221731 12 181 0.0 0.0 0.00 0.00 0.00 75 1013.6
20260501221229 12 152 0.0 1.6 0.00 0.00 0.00 75 1013.9
20260501220726 12 152 1.6 1.6 0.00 0.00 0.00 74 1013.7
20260501220223 12 137 0.0 1.6 0.00 0.00 0.00 73 1013.7
20260501215720 12 171 1.6 1.6 0.00 0.00 0.00 74 1014.1
20260501215215 12 158 1.6 1.6 0.00 0.00 0.00 73 1013.8
20260501214710 12 169 1.6 6.4 0.00 0.00 0.00 71 1013.9
20260501214207 12 173 0.0 3.2 0.00 0.00 0.00 74 1014.0
20260501213703 12 130 3.2 3.2 0.00 0.00 0.00 71 1014.0
20260501213159 12 161 1.6 1.6 0.00 0.00 0.00 71 1014.0
20260501212656 12 162 3.2 6.4 0.00 0.00 0.00 68 1014.0
20260501212153 12 159 0.0 3.2 0.00 0.00 0.00 68 1014.0
20260501211649 12 153 0.0 1.6 0.00 0.00 0.00 70 1014.1
20260501211147 12 166 0.0 1.6 0.00 0.00 0.00 70 1014.2
20260501210643 12 138 3.2 3.2 0.00 0.00 0.00 68 1014.1
20260501210140 12 147 3.2 3.2 0.00 0.00 0.00 70 1014.2
20260501205637 12 179 3.2 3.2 0.00 0.00 0.00 71 1014.3
20260501205134 12 139 3.2 3.2 0.00 0.00 0.00 73 1014.2
20260501204631 12 163 3.2 3.2 0.00 0.00 0.00 73 1014.3
20260501204126 12 147 0.0 0.0 0.00 0.00 0.00 74 1014.3
20260501203623 12 144 0.0 0.0 0.00 0.00 0.00 75 1014.2
20260501203121 12 129 1.6 3.2 0.00 0.00 0.00 72 1014.2
20260501202618 12 168 0.0 0.0 0.00 0.00 0.00 72 1014.2
20260501202115 12 151 0.0 1.6 0.00 0.00 0.00 71 1014.3
20260501201612 12 170 1.6 3.2 0.00 0.00 0.00 73 1014.3
20260501201108 11 156 1.6 3.2 0.00 0.00 0.00 75 1014.5
20260501200605 11 161 1.6 1.6 0.00 0.00 0.00 76 1014.7
20260501195600 11 143 0.0 4.8 0.00 0.00 0.00 74 1014.9
20260501195055 11 113 3.2 3.2 0.00 0.00 0.00 73 1015.2